Location: Azul
(36.7830°S, 59.8500°W)
Time: 01:15:00
(UTC-03:00)

CAS-4A - Pass Details

Date: 30 October 2021
Orbit: 529 x 539 km, 43.0° (Epoch: 04 December)

Event Time Altitude Azimuth Distance (km) Brightness Sun altitude
Exits shadow 02:24:13 14° 124° (SE) 1,560 ? -34.0°
Drops below altitude 10° 02:24:47 11° 120° (ESE) 1,753 ? -34.0°
Sets 02:27:17 0° 110° (ESE) 2,685 ? -33.7°
